Location: ?????
(37.7324°N, 23.9257°E)
Time: 08:21:22
(UTC+00:00)

CZ-2C R/B - Pass Details

Date: 29 November 2020
Orbit: 784 x 870 km, 98.2° (Epoch: 17 January)

Event Time Altitude Azimuth Distance (km) Brightness Sun altitude
Rises 04:44:11 0° 157° (SSE) 3,418 6.6 -7.1°
Reaches altitude 10° 04:46:35 10° 155° (SSE) 2,476 5.9 -6.7°
Maximum altitude 04:52:01 65° 74° (ENE) 924 3.2 -5.7°
Drops below altitude 10° 04:57:22 10° 354° (N) 2,437 4.8 -4.7°
Sets 04:59:43 0° 351° (N) 3,361 5.5 -4.3°
